Flag for U.S.A. Weather past 2 weeks in Portland, Maine, U.S.A.

Now
3 °F

Passing clouds.


Feels Like: -6 °F
Forecast: 6 / 20 °F
Wind: 5 mph from West

Location: Portland - Portland International Jetport

Current Time: Feb 1, 2015 at 7:40:50 AM

Latest Report: Feb 1, 2015 at 6:51 AM


Visibility: 10 mi

Pressure: 30.04 "Hg

Humidity: 66%

Dew point: -6 °F

Location of PortlandLocation

Historic Weather in Portland — Graph

°F

Portland temperature yesterday

Maximum temperature yesterday: 21 °F (at 1:51 PM)
Minimum temperature yesterday: 9 °F (at 8:51 PM)
Average temperature yesterday: 16 °F

Past Weeks' High & Low Weather Summary

 TemperatureHumidityPressure
High49 °F (Jan 18, 9:51 PM)96% (Jan 18, 4:51 PM)30.35 "Hg (Jan 18, 4:51 PM)
Low-1 °F (Jan 17, 5:51 AM)24% (Jan 17, 3:51 PM)29.16 "Hg (Jan 24, 8:51 PM)
Average24 °F62%29.91 "Hg
* Reported Jan 17 5:51 AM — Feb 1 5:51 AM, Portland, Weather by CustomWeather, © 2014

Note: Actual official high and low records may vary slightly from our data, if they occured in-between our weather recording intervals... More about our weather records

Advertising

Portland weather history for previous 24 hours

 ConditionsComfort  
Time TempWeatherWind HumidityBarometerVisibility
5:51 AM
Feb 1
3 °FClear.5 mph60%30.02 "Hg10 mi
4:51 AM1 °FClear.No wind62%30.02 "Hg10 mi
3:51 AM4 °FClear.6 mph60%30.00 "Hg10 mi
2:51 AM3 °FClear.3 mph60%29.98 "Hg10 mi
1:51 AM5 °FClear.5 mph54%29.98 "Hg10 mi
12:51 AM8 °FClear.8 mph49%29.96 "Hg10 mi
11:51 PM
Jan 31
11 °FClear.7 mph44%29.94 "Hg10 mi
10:51 PM10 °FClear.6 mph45%29.94 "Hg10 mi
9:51 PM12 °FClear.10 mph40%29.93 "Hg10 mi
8:51 PM9 °FClear.8 mph43%29.93 "Hg10 mi
7:51 PM13 °FClear.7 mphN/A29.91 "Hg10 mi
6:51 PM15 °FClear.14 mph33%29.90 "Hg10 mi
5:51 PM16 °FPassing clouds.16 mph35%29.88 "Hg10 mi
4:51 PM18 °FPassing clouds.18 mph31%29.85 "Hg10 mi
3:51 PM20 °FPartly sunny.22 mph32%29.81 "Hg10 mi
2:51 PM21 °FPartly sunny.32 mph38%29.79 "Hg10 mi
1:51 PM21 °FPartly sunny.26 mph38%29.76 "Hg10 mi
12:51 PM20 °FPartly sunny.22 mph41%29.75 "Hg10 mi
11:51 AM18 °FPartly sunny.28 mph45%29.75 "Hg10 mi
10:51 AM17 °FScattered clouds.22 mph49%29.76 "Hg10 mi
9:51 AM15 °FPartly sunny.25 mph53%29.76 "Hg7 mi
8:51 AM13 °FOvercast.22 mph59%29.76 "Hg7 mi
7:51 AM14 °FOvercast.23 mph58%29.76 "Hg7 mi
Weather by CustomWeather, © 2014

See weather overviewHow to use our weather pages